FW2511 Weather Reports


Display with metric or nautical units.
time (UTC)temp
F
wind
direction
speed
MPH
gust
MPH
rain 1hr
in
rain 24hr
in
rain mn
in
humidity
%
barometer
mb
20260508174633 67 228 3.0 15.0 0.00 0.33 0.00 35 1017.6
20260508173033 67 5 1.0 8.0 0.00 0.33 0.00 34 1017.9
20260508171531 67 146 1.0 9.0 0.00 0.33 0.00 33 1018.0
20260508170031 66 261 0.0 11.0 0.00 0.33 0.00 32 1018.3
20260508164630 65 240 1.0 8.0 0.00 0.33 0.00 32 1018.8
20260508163030 66 309 2.0 7.0 0.00 0.33 0.00 34 1018.8
20260508161528 66 257 1.0 5.0 0.00 0.33 0.00 36 1018.9
20260508160026 65 207 1.0 5.0 0.00 0.33 0.00 35 1019.1
20260508154626 64 165 1.0 5.0 0.00 0.33 0.00 35 1019.3
20260508153025 65 86 0.0 6.0 0.00 0.33 0.00 36 1019.5
20260508151523 64 294 0.0 5.0 0.00 0.33 0.00 36 1019.4
20260508150023 64 294 4.0 6.0 0.00 0.37 0.00 36 1019.2
20260508144619 62 85 2.0 6.0 0.00 0.37 0.00 40 1019.3
20260508143017 62 51 3.0 6.0 0.00 0.37 0.00 37 1019.4
20260508141523 61 5 1.0 5.0 0.00 0.37 0.00 40 1019.5
20260508140015 62 76 1.0 5.0 0.00 0.38 0.00 41 1019.6
20260508134625 61 71 2.0 5.0 0.00 0.38 0.00 43 1019.5
20260508133011 60 78 0.0 4.0 0.00 0.38 0.00 49 1019.4
20260508131507 59 40 0.0 5.0 0.00 0.38 0.00 53 1019.3
20260508130106 58 5 2.0 4.0 0.00 0.38 0.00 56 1019.2
20260508124606 56 19 0.0 4.0 0.00 0.38 0.00 61 1019.1
20260508123003 53 63 0.0 3.0 0.00 0.38 0.00 74 1018.9
20260508121503 51 60 0.0 1.0 0.00 0.38 0.00 78 1018.8
20260508120100 50 60 0.0 0.0 0.00 0.43 0.00 77 1018.6
20260508114603 49 60 0.0 0.0 0.00 0.43 0.00 77 1018.5
20260508113057 48 60 0.0 0.0 0.00 0.43 0.00 77 1018.0
20260508111556 48 60 0.0 0.0 0.00 0.43 0.00 77 1017.9
20260508110057 47 60 0.0 0.0 0.00 0.44 0.00 76 1017.6
20260508104552 47 60 0.0 0.0 0.00 0.44 0.00 76 1017.5
20260508103058 48 60 0.0 1.0 0.00 0.44 0.00 76 1017.3
20260508101549 48 60 0.0 1.0 0.00 0.44 0.00 76 1016.9
20260508100104 48 60 0.0 0.0 0.00 0.44 0.00 76 1016.6
20260508094556 48 60 0.0 0.0 0.00 0.44 0.00 75 1016.5
20260508093046 48 60 0.0 0.0 0.00 0.44 0.00 75 1016.5
20260508091547 49 60 0.0 0.0 0.00 0.44 0.00 75 1016.5
20260508090106 49 60 0.0 0.0 0.00 0.46 0.00 75 1016.4
20260508084545 49 60 0.0 0.0 0.00 0.46 0.00 74 1016.2
20260508083040 49 60 0.0 0.0 0.00 0.46 0.00 74 1016.2
20260508081553 49 60 0.0 2.0 0.00 0.46 0.00 73 1015.8
20260508080039 49 60 0.0 1.0 0.00 0.53 0.00 73 1015.8
20260508074535 50 60 0.0 1.0 0.00 0.53 0.00 72 1015.7
20260508073037 50 60 0.0 2.0 0.00 0.53 0.00 72 1015.6
20260508071531 50 60 0.0 0.0 0.00 0.53 0.00 71 1015.6
20260508070031 50 60 0.0 0.0 0.00 0.65 0.00 71 1015.4
20260508064534 50 60 0.0 0.0 0.00 0.65 0.00 71 1015.5
20260508063035 50 60 0.0 0.0 0.00 0.65 0.00 71 1015.3
20260508061535 51 60 0.0 0.0 0.00 0.65 0.00 71 1015.4
20260508060029 51 60 0.0 1.0 0.00 0.83 0.00 71 1015.4
20260508054526 52 60 0.0 1.0 0.00 0.83 0.00 71 1015.4
20260508053031 52 60 0.0 2.0 0.00 0.83 0.00 70 1015.5
20260508051523 52 60 0.0 0.0 0.00 0.83 0.00 69 1015.2
20260508050021 53 60 0.0 0.0 0.00 0.84 0.00 69 1015.2
20260508044520 53 60 0.0 1.0 0.00 0.84 0.00 70 1015.1
20260508043021 55 60 0.0 0.0 0.00 0.84 0.00 71 1015.0
20260508041521 55 60 0.0 0.0 0.00 0.84 0.00 71 1014.9
20260508040015 56 60 0.0 1.0 0.00 0.86 0.00 71 1014.9
20260508034515 56 60 0.0 1.0 0.00 0.86 0.00 70 1014.8
20260508033007 56 60 0.0 1.0 0.00 0.86 0.00 70 1014.8
20260508031505 57 60 0.0 1.0 0.00 0.86 0.00 69 1014.6
20260508030002 58 59 0.0 1.0 0.00 1.08 0.00 68 1014.6
20260508024620 59 59 0.0 1.0 0.00 1.08 0.00 65 1014.4
20260508023058 59 59 1.0 4.0 0.00 1.08 0.00 65 1014.4
20260508021605 59 89 2.0 6.0 0.00 1.08 0.00 68 1014.1
20260508020057 59 64 0.0 4.0 0.00 1.39 1.08 69 1013.9
20260508014555 59 89 2.0 4.0 0.00 1.39 1.08 70 1013.6
20260508013056 59 92 1.0 4.0 0.00 1.39 1.08 70 1013.2
20260508011605 59 64 1.0 4.0 0.00 1.39 1.08 70 1013.0
20260508010056 60 77 1.0 4.0 0.00 1.66 1.08 71 1012.8
20260508004600 60 70 2.0 5.0 0.02 1.66 1.08 71 1012.5
20260508003050 60 34 0.0 3.0 0.05 1.66 1.08 70 1012.3
20260508001550 60 15 0.0 5.0 0.10 1.66 1.08 70 1011.8
20260508000048 61 5 2.0 9.0 0.16 1.72 1.08 69 1011.4
20260507234547 61 28 2.0 8.0 0.23 1.71 1.07 70 1011.0
20260507233045 61 5 4.0 14.0 0.25 1.68 1.04 69 1010.8
20260507231544 62 93 2.0 12.0 0.23 1.63 0.99 70 1010.8
20260507230052 63 35 4.0 11.0 0.17 1.57 0.93 69 1010.2
20260507224539 64 40 4.0 11.0 0.11 1.51 0.87 70 1009.5
20260507223039 66 38 9.0 18.0 0.04 1.44 0.80 68 1009.1
20260507221542 75 283 0.0 4.0 0.00 1.40 0.76 58 1008.0
20260507220039 75 304 3.0 10.0 0.00 1.40 0.76 54 1008.4
20260507214538 76 271 4.0 9.0 0.00 1.40 0.76 53 1008.3
20260507213039 76 291 3.0 11.0 0.01 1.40 0.76 55 1008.0
20260507211541 75 263 3.0 12.0 0.01 1.40 0.76 55 1007.9
20260507210040 74 236 3.0 9.0 0.01 1.40 0.76 58 1007.9
20260507204537 72 261 5.0 11.0 0.01 1.40 0.76 61 1008.1
20260507203104 73 269 3.0 10.0 0.01 1.40 0.76 59 1008.0
20260507201534 75 236 3.0 9.0 0.00 1.39 0.75 53 1007.5
20260507200034 76 164 4.0 9.0 0.00 1.39 0.75 52 1008.0
20260507194531 75 250 2.0 10.0 0.00 1.39 0.75 55 1008.1
20260507193028 76 223 5.0 11.0 0.00 1.39 0.75 55 1008.3
20260507191529 75 313 5.0 13.0 0.00 1.39 0.75 55 1008.6
20260507190024 75 241 5.0 13.0 0.00 1.39 0.75 57 1008.8
20260507184524 74 238 5.0 12.0 0.00 1.39 0.75 55 1008.8
20260507183020 73 268 3.0 12.0 0.00 1.39 0.75 58 1009.1
20260507181517 72 224 3.0 9.0 0.00 1.39 0.75 61 1009.0
20260507180022 72 250 4.0 7.0 0.00 1.44 0.75 59 1009.0